Location: Amsterdam
(30.7274°N, 84.4357°W)
Time: 21:00:47
(UTC+00:00)

Tiros 1 despin weight - Pass Details

Date: 20 February 2026
Orbit: 556 x 593 km, 48.2° (Epoch: 7 March)

Event Time Altitude Azimuth Distance (km) Brightness Sun altitude
Rises 01:18:13 0° 321° (NW) 2,731 ? -24.1°
Reaches altitude 10° 01:20:47 10° 335° (NNW) 1,837 ? -24.7°
Enters shadow 01:22:25 18° 354° (N) 1,387 ? -25.0°
Maximum altitude 01:24:14 24° 30° (NNE) 1,167 - -25.4°
Drops below altitude 10° 01:27:42 10° 86° (E) 1,843 - -26.2°
Sets 01:30:17 0° 100° (E) 2,743 - -26.7°
